Regional Weather Roundup
Issued by NWS Sioux Falls, SD

Home | Current Version | Previous Version | Text Only | Print | Product List | Glossary Off
Versions: 1 2 3 4 5 6 7 8 9 10 11 12 13 14 15 16 17 18 19 20 21 22 23 24 25 26 27 28 29 30 31 32 33 34 35 36 37 38 39 40 41 42 43 44 45 46 47 48 49 50

000
ASUS43 KFSD 302102
RWRFSD

WEATHER ROUNDUP FOR SE SOUTH DAKOTA/SW MINNESOTA/NW IOWA
NATIONAL WEATHER SERVICE SIOUX FALLS SD
400 PM CDT SAT AUG 30 2014

NOTE: "FAIR" INDICATES FEW OR NO CLOUDS BELOW 12,000 FEET WITH NO
SIGNIFICANT WEATHER AND OR OBSTRUCTIONS TO VISIBILITY.


SDZ038>040-050-052>070-302200-
SOUTHEAST SOUTH DAKOTA

CITY           SKY/WX    TMP DP  RH WIND       PRES   REMARKS
CHAMBERLAIN    SUNNY     74  60  62 SE13      29.84F
HURON          SUNNY     70  57  63 SE7       29.86F
MADISON        CLOUDY    66  63  88 W6        29.90F
MITCHELL       SUNNY     71  60  68 SE7       29.87F
SIOUX FALLS    PTSUNNY   69  60  73 VRB3      29.89F
WINNER         FAIR      81  60  48 SE16G24   29.82F
YANKTON        SUNNY     72  61  68 E3        29.88F
$$

MNZ071-072-080-081-089-090-097-098-302200-
SOUTHWEST MINNESOTA

CITY           SKY/WX    TMP DP  RH WIND       PRES   REMARKS
FAIRMONT       PTSUNNY   72  61  68 N5        29.88F
JACKSON        PTSUNNY   75  61  60 W3        29.89F
LUVERNE        MOSUNNY   73  59  60 W6        29.90F
MARSHALL       MOSUNNY   70  61  73 NW6       29.88F
MONTEVIDEO     CLOUDY    68  68 100 W6        29.89F
PIPESTONE      PTSUNNY   70  61  73 CALM      29.90F
REDWOOD FALLS  CLOUDY    69  63  81 W7        29.88S
TRACY          MOSUNNY   72  64  75 CALM      29.89F
WINDOM         SUNNY     73  63  68 CALM      29.89F
WORTHINGTON    MOSUNNY   72  61  68 NW5       29.91S
$$

IAZ001>003-012>014-020>022-031-032-NEZ013-014-SDZ071-302200-
NORTHWEST IOWA

CITY           SKY/WX    TMP DP  RH WIND       PRES   REMARKS
CHEROKEE       MOSUNNY   74  63  69 W7        29.89F
DENISON        SUNNY     73  63  68 W6        29.89F
ESTHERVILLE    MOSUNNY   74  61  63 VRB3      29.88F
LE MARS        PTSUNNY   73  63  68 VRB5      29.90F
ORANGE CITY    PTSUNNY   75  61  60 W3        29.90F
SHELDON        PTSUNNY   73  64  73 VRB3      29.88F
SIOUX CITY     SUNNY     75  60  59 CALM      29.89F
SPENCER        MOSUNNY   78  63  59 W9        29.88F
STORM LAKE     SUNNY     72  72 100 VRB7      29.91S
$$

ABBREVIATIONS USED IN REMARKS
   TC - TEMPERATURE IN CELSIUS
  WCI - WIND CHILL INDEX
   HX - HEAT INDEX
  VSB - VISIBILITY



USA.gov is the U.S. government's official web portal to all federal, state and local government web resources and services.